Tracking 23610 objects as of 19-Sep-2021
HD Live streaming from Space Station
objects crossing your sky now

STARLINK-1835

Track STARLINK-1835 now!
10-day predictions
STARLINK-1835 is classified as:


NORAD ID: 46782
Int'l Code: 2020-074AV
Perigee: 553.0 km
Apogee: 555.8 km
Inclination: 53.1 °
Period: 95.6 minutes
Semi major axis: 6925 km
RCS: Unknown
Launch date: October 24, 2020
Source: United States (US)
Launch site: AIR FORCE EASTERN TEST RANGE (AFETR)
aabbcc
Your satellite tracking list
Your tracking list is empty




NASA's NSSDC Master Catalog

Two Line Element Set (TLE):
1 46782U 20074AV  21262.48764658 -.00000296  00000-0 -97778-6 0  9994
2 46782  53.0558  78.8705 0001997  92.4771 267.6447 15.06387731 50806
Source of the keplerian elements: AFSPC